Wind_Speed
6 5 4 4 4 5 2 3 5 7 7 3 2 4 6 7 6 4 4 1 8 7 6 5 5 5 7 7 7 8 9 11 13
9 9 7 7 8 6 5 4 4 7 6 5 4 5 6 7 6 6 2 6 9 7 9 10 10 10 10 12 13 11 14 14 14
11 12 13 11 11 10 5 6 7 7 7 7 6 6 7 8 7 6 5 6 8 8 10 11 12 11 12 11 14 14 14 13 14
15 14 16 15 14 14 12 7 8 8 9 9 8 8 8 8 6 6 4 7 9 9 10 10 11 11 11 12 13 13 14 14 13
12 14 20 18 17 18 17 13 9 9 11 11 11 10 9 7 6 5 5 8 10 9 10 10 11 10 11 11 14 12 13 12 13
10 13 17 21 19 20 21 18 13 10 11 14 14 14 11 8 5 3 7 9 8 9 9 10 10 11 10 11 12 11 12 11 11
4 9 10 23 22 20 23 21 17 14 11 15 17 16 13 9 6 3 6 10 9 8 9 9 10 10 10 11 10 10 9 10 9
2 5 7 18 23 24 25 26 22 17 11 15 19 18 15 11 8 4 5 10 9 8 9 9 9 10 10 9 9 8 8 8 8
5 2 5 3 21 22 27 30 25 19 13 16 20 20 17 13 10 7 7 11 10 10 9 9 9 8 8 7 7 6 6 7 7
6 3 5 7 0 19 25 30 28 23 16 17 22 22 19 16 12 11 10 12 12 11 10 9 9 8 7 7 6 5 5 7 7
9 6 5 8 10 8 18 29 30 24 20 19 24 23 21 18 15 13 12 14 13 12 10 10 9 8 8 7 6 5 5 6 5
11 10 9 9 10 11 5 25 28 26 21 20 26 25 23 19 17 15 13 14 15 14 13 12 11 10 9 8 6 5 5 5 4
12 10 9 7 11 14 11 5 28 28 25 23 26 27 25 22 20 17 16 15 17 16 14 14 13 11 10 9 8 6 6 5 3
12 9 9 11 16 18 12 14 8 30 31 27 25 26 27 25 23 20 18 17 18 18 17 16 16 15 12 10 10 8 7 6 5
13 10 14 14 13 16 17 12 19 20 34 30 28 26 26 26 25 22 20 19 18 21 20 19 18 17 15 13 12 10 9 8 7
14 15 13 15 13 14 16 13 15 4 24 35 31 27 26 27 25 23 22 22 22 23 23 21 20 19 18 16 15 13 11 10 9
15 16 14 12 12 12 11 12 14 9 4 18 31 26 24 24 26 24 25 26 24 25 24 24 23 21 20 19 17 15 13 12 10
15 15 15 11 11 11 10 11 10 13 10 8 13 7 10 29 33 31 30 28 27 26 24 24 25 22 21 20 18 17 15 14 12
13 15 15 14 12 9 13 13 10 12 12 12 12 13 7 15 18 36 35 32 30 30 28 27 26 25 23 23 21 19 16 15 14
12 14 15 15 15 12 11 18 15 10 14 13 19 15 23 13 8 23 39 38 35 31 30 30 29 28 26 25 25 21 19 18 17
Wind_Direction
272 232 240 253 198 198 195 122 126 145 150 170 253 308 324 334 346 348 315 125 101 107 112 116 112 109 103 115 111 109 95 92 89
265 259 226 241 229 223 233 204 167 169 176 189 237 292 314 327 353 354 336 106 109 103 104 105 108 104 109 105 100 94 92 85 83
244 254 246 225 235 234 239 234 213 206 203 202 239 275 301 318 344 4 104 128 108 108 105 107 104 108 104 103 104 97 97 93 93
237 238 246 241 224 233 241 242 235 225 217 215 235 263 284 307 329 341 138 126 121 120 122 121 115 113 114 111 110 101 100 99 93
271 232 237 238 235 231 241 247 248 236 222 217 224 239 258 285 308 322 146 148 142 138 139 128 129 132 121 115 109 107 108 99 102
301 247 240 235 234 233 235 245 250 249 226 212 216 230 237 255 286 285 170 157 154 154 144 139 137 129 127 116 118 115 116 110 105
336 285 261 239 233 234 235 239 250 254 236 209 211 223 230 239 242 247 163 169 170 163 156 146 147 138 135 130 127 120 115 114 108
317 308 270 222 230 225 231 233 243 250 245 214 205 218 228 235 240 247 195 182 178 173 162 158 152 146 145 135 138 125 115 111 102
289 332 307 253 225 212 218 219 241 245 240 212 203 217 224 228 236 254 251 183 182 176 176 165 164 155 152 149 138 130 121 106 99
312 324 280 343 198 223 231 202 221 238 229 213 207 217 223 222 231 251 251 190 188 183 182 173 171 168 162 160 151 144 125 109 106
310 281 281 297 350 6 230 221 204 225 229 218 207 217 221 224 230 241 242 211 192 191 187 183 185 182 179 179 167 154 135 120 114
312 300 317 297 311 4 320 225 207 214 226 220 208 216 220 225 230 234 237 227 197 193 194 194 195 194 193 192 182 172 151 140 131
318 314 300 287 285 320 10 205 213 212 218 219 211 216 218 223 230 236 239 238 222 198 201 199 202 198 198 202 198 189 173 166 169
333 306 298 293 272 292 334 354 308 215 213 213 213 220 220 221 228 233 240 243 242 208 204 206 206 201 204 206 215 203 190 190 197
317 310 291 287 278 286 309 329 351 246 212 207 209 217 220 222 227 233 239 245 251 220 210 214 214 211 203 209 219 214 204 203 212
311 309 304 308 285 287 291 308 315 226 206 207 200 205 214 220 226 233 240 248 247 237 220 218 218 219 214 209 218 222 212 213 220
315 307 315 329 304 265 266 292 305 315 153 199 193 187 197 210 225 231 238 243 244 241 231 225 225 224 223 222 221 223 219 219 223
306 310 311 316 314 283 260 269 289 293 300 250 201 191 202 205 218 224 228 236 238 238 237 237 234 233 229 228 230 229 223 223 227
308 309 313 312 305 303 264 249 269 276 292 301 237 249 282 199 214 220 226 232 239 234 236 240 239 237 232 230 231 229 227 227 230
312 309 314 317 311 302 293 263 240 251 260 272 277 319 254 243 239 221 222 227 234 237 239 243 242 236 233 232 232 233 226 227 232
Height
1568 1568 1569 1571 1571 1572 1573 1573 1573 1573 1573 1573 1572 1572 1572 1572 1571 1570 1569 1567 1567 1566 1565 1564 1564 1564 1563 1563 1563 1562 1562 1561 1561
1567 1568 1567 1569 1570 1571 1572 1573 1574 1574 1574 1574 1572 1572 1573 1573 1572 1570 1569 1568 1569 1568 1567 1566 1566 1565 1565 1564 1563 1562 1563 1563 1563
1563 1566 1566 1567 1569 1570 1571 1572 1573 1574 1574 1573 1572 1572 1573 1573 1572 1571 1570 1571 1569 1570 1569 1569 1568 1567 1567 1566 1566 1565 1565 1565 1565
1558 1562 1565 1565 1566 1568 1570 1572 1573 1573 1574 1573 1572 1572 1572 1572 1572 1572 1571 1572 1571 1572 1571 1571 1571 1570 1569 1568 1567 1567 1567 1567 1567
1555 1556 1561 1563 1564 1566 1567 1569 1571 1572 1573 1574 1572 1571 1572 1572 1572 1572 1572 1574 1573 1573 1572 1572 1572 1571 1571 1570 1569 1569 1569 1569 1569
1553 1553 1555 1559 1560 1562 1564 1566 1568 1570 1571 1572 1571 1571 1571 1572 1572 1573 1573 1574 1574 1573 1574 1572 1573 1573 1573 1572 1571 1571 1570 1571 1570
1549 1551 1552 1554 1556 1559 1561 1563 1565 1567 1569 1569 1570 1570 1570 1571 1572 1573 1573 1574 1574 1574 1574 1573 1573 1573 1574 1573 1573 1572 1572 1572 1572
1547 1548 1549 1549 1552 1555 1558 1559 1561 1564 1567 1567 1568 1568 1569 1571 1572 1572 1573 1573 1574 1574 1574 1574 1574 1574 1574 1574 1574 1574 1574 1574 1574
1546 1545 1547 1545 1547 1548 1550 1552 1557 1561 1564 1565 1565 1567 1568 1570 1571 1572 1572 1572 1573 1574 1574 1575 1575 1574 1575 1574 1575 1575 1575 1576 1575
1545 1542 1545 1545 1543 1544 1546 1543 1552 1557 1560 1562 1563 1564 1566 1568 1570 1571 1571 1571 1572 1573 1574 1575 1575 1575 1575 1575 1576 1576 1577 1577 1576
1543 1542 1542 1544 1543 1542 1542 1545 1546 1553 1556 1559 1560 1562 1564 1566 1567 1569 1570 1570 1570 1571 1573 1574 1575 1575 1575 1576 1576 1577 1578 1578 1577
1544 1542 1540 1539 1542 1539 1540 1543 1543 1548 1553 1556 1557 1559 1562 1564 1566 1567 1568 1568 1569 1571 1572 1573 1574 1575 1575 1576 1576 1577 1578 1578 1578
1544 1541 1539 1537 1537 1541 1540 1539 1540 1542 1548 1552 1554 1556 1559 1562 1565 1566 1567 1568 1568 1569 1571 1571 1573 1574 1575 1575 1576 1577 1578 1578 1578
1541 1541 1538 1535 1535 1542 1535 1536 1536 1538 1542 1548 1550 1553 1556 1558 1561 1563 1565 1566 1567 1567 1569 1570 1571 1572 1574 1575 1575 1576 1577 1578 1578
1540 1540 1538 1538 1538 1532 1534 1534 1535 1536 1539 1543 1547 1549 1553 1555 1557 1559 1562 1563 1564 1565 1566 1567 1568 1569 1572 1573 1574 1575 1576 1576 1577
1539 1538 1536 1533 1526 1529 1535 1534 1538 1538 1535 1538 1543 1545 1549 1552 1553 1556 1558 1560 1561 1561 1562 1564 1565 1566 1569 1571 1572 1573 1574 1575 1576
1536 1538 1534 1528 1531 1533 1533 1536 1538 1538 1533 1534 1539 1541 1547 1548 1549 1552 1553 1555 1557 1557 1558 1560 1562 1563 1565 1567 1568 1570 1572 1574 1575
1537 1537 1534 1532 1533 1527 1530 1535 1536 1535 1532 1533 1538 1539 1539 1544 1543 1545 1548 1549 1551 1553 1555 1556 1558 1560 1562 1564 1565 1567 1570 1571 1573
1536 1534 1533 1532 1530 1528 1526 1531 1534 1532 1530 1533 1536 1539 1538 1541 1538 1539 1542 1544 1545 1547 1550 1552 1554 1556 1558 1560 1562 1564 1567 1569 1570
1534 1531 1530 1528 1526 1523 1524 1528 1528 1530 1529 1534 1533 1533 1537 1537 1535 1531 1534 1538 1539 1541 1544 1547 1549 1551 1553 1555 1557 1560 1563 1565 1567